Location: ????????
(60.4333°N, 46.4710°E)
Time: 18:22:19
(UTC+00:00)

Spot 2 - Pass Details

Date: 25 November 2020
Orbit: 569 x 774 km, 98.7° (Epoch: 16 January)

Event Time Altitude Azimuth Distance (km) Brightness Sun altitude
Rises 13:08:04 0° 157° (SSE) 3,014 7.7 -7.4°
Reaches altitude 10° 13:10:14 10° 157° (SSE) 2,135 6.9 -7.6°
Maximum altitude 13:14:56 86° 71° (ENE) 727 4.4 -8.1°
Drops below altitude 10° 13:19:57 10° 342° (NNW) 2,270 6.9 -8.6°
Sets 13:22:18 0° 342° (NNW) 3,221 7.6 -8.9°
